Find Starlink 30811

NORAD ID: 58167 Int'l Des: 2023-166 Owner: SPXS Country: US Constellation: starlink operational
LEOCIRCULAR

リアルタイム位置

3D地球を読み込み中...

Starlink 30811について

説明を読み込み中...

次回通過

Passes for default location (London). Set your location on the main map for personalized predictions.

高度履歴

Loading altitude history...

軌道要素

1 58167U 23166T 26105.86264847 -.00000225 00000-0 45395-5 0 9995
2 58167 53.1618 46.7370 0001355 98.3642 261.7513 15.30196480138729
Epoch: Apr 15, 2026 • Age: 15 hours

現在のステータス

高度 476.1 km
速度 7.63 km/s
衛星直下点 29.14°N, 176.76°W
打ち上げ日 Oct 29, 2023
運用期間 2.4 years
タイプ internet

技術仕様

分類 Payload
質量 730.00 kg
乾燥質量 700.00 kg
総質量 730.00 kg
長さ 0.30 m
直径 4.10 m
スパン 29.00 m
形状 Box + pan
製造者 SPXS
バスタイプ Starlink V2M
フェーズステータス In Orbit
所有者/国 SPXS/US

Most Searched